When you browse on this site, cookies collect data to enhance your experience and personalize the content and advertising you see.
Visit our Privacy Policy to learn more. By continuing to use the site, you agree to this use of cookies and data.
  • In Netherlands
  • List of Countries
  • For 7 days
  • Water Temperature
  • Weather Map
  • Weather Widgets
  • user-avatar
    Login

    Hourly Weather Molepolole

    Today, 30 May, Saturday

    Time Temperature Precipitation Wind Pressure Humidity
    00:00 +13°C° 0 mm 2 mps 666 mmHg 25%
    01:00 +13°C° 0 mm 2 mps 666 mmHg 26%
    02:00 +12°C° 0 mm 2 mps 666 mmHg 28%
    03:00 +12°C° 0 mm 2 mps 666 mmHg 30%
    04:00 +10°C° 0 mm 2 mps 666 mmHg 31%
    05:00 +10°C° 0 mm 2 mps 665 mmHg 33%
    06:00 +12°C° 0 mm 2 mps 666 mmHg 32%
    07:00 +12°C° 0 mm 2 mps 667 mmHg 31%
    08:00 +14°C° 0 mm 2 mps 668 mmHg 30%
    09:00 +17°C° 0 mm 3 mps 668 mmHg 26%
    10:00 +19°C° 0 mm 3 mps 669 mmHg 21%
    11:00 +22°C° 0 mm 4 mps 670 mmHg 17%
    12:00 +23°C° 0 mm 4 mps 669 mmHg 16%
    13:00 +25°C° 0 mm 3 mps 669 mmHg 15%
    14:00 +26°C° 0 mm 3 mps 669 mmHg 14%
    15:00 +26°C° 0 mm 3 mps 668 mmHg 15%
    16:00 +25°C° 0 mm 2 mps 668 mmHg 16%
    17:00 +24°C° 0 mm 2 mps 668 mmHg 17%
    18:00 +21°C° 0 mm 2 mps 668 mmHg 20%
    19:00 +18°C° 0 mm 2 mps 667 mmHg 22%
    20:00 +16°C° 0 mm 1 mps 667 mmHg 25%
    21:00 +16°C° 0 mm 1 mps 668 mmHg 26%
    22:00 +15°C° 0 mm 1 mps 668 mmHg 28%
    23:00 +14°C° 0 mm 1 mps 668 mmHg 29%

    Tomorrow, 31 May, Sunday

    Time Temperature Precipitation Wind Pressure Humidity
    00:00 +14°C° 0 mm 1 mps 668 mmHg 30%
    01:00 +13°C° 0 mm 1 mps 668 mmHg 31%
    02:00 +13°C° 0 mm 2 mps 667 mmHg 32%
    03:00 +12°C° 0 mm 2 mps 667 mmHg 33%
    04:00 +10°C° 0 mm 2 mps 668 mmHg 34%
    05:00 +10°C° 0 mm 2 mps 668 mmHg 35%
    06:00 +10°C° 0 mm 2 mps 668 mmHg 34%
    07:00 +12°C° 0 mm 2 mps 669 mmHg 33%
    08:00 +13°C° 0 mm 1 mps 669 mmHg 32%
    09:00 +16°C° 0 mm 2 mps 670 mmHg 29%
    10:00 +19°C° 0 mm 3 mps 671 mmHg 27%
    11:00 +22°C° 0 mm 3 mps 671 mmHg 24%
    12:00 +24°C° 0 mm 3 mps 671 mmHg 22%
    13:00 +25°C° 0 mm 3 mps 671 mmHg 20%
    14:00 +26°C° 0 mm 3 mps 670 mmHg 18%
    15:00 +26°C° 0 mm 3 mps 670 mmHg 19%
    16:00 +25°C° 0 mm 2 mps 670 mmHg 20%
    17:00 +24°C° 0 mm 2 mps 670 mmHg 21%
    18:00 +21°C° 0 mm 2 mps 670 mmHg 24%
    19:00 +19°C° 0 mm 2 mps 669 mmHg 28%
    20:00 +17°C° 0 mm 2 mps 669 mmHg 31%
    21:00 +16°C° 0 mm 2 mps 669 mmHg 33%
    22:00 +15°C° 0 mm 1 mps 669 mmHg 35%
    23:00 +14°C° 0 mm 1 mps 669 mmHg 37%

    Day after tomorrow, 1 June, Monday

    Time Temperature Precipitation Wind Pressure Humidity
    00:00 +14°C° 0 mm 1 mps 669 mmHg 39%
    01:00 +13°C° 0 mm 1 mps 669 mmHg 40%
    02:00 +13°C° 0 mm 1 mps 669 mmHg 42%
    03:00 +12°C° 0 mm 1 mps 668 mmHg 44%
    04:00 +12°C° 0 mm 1 mps 668 mmHg 46%
    05:00 +11°C° 0 mm 1 mps 668 mmHg 49%
    06:00 +12°C° 0 mm 1 mps 669 mmHg 46%
    07:00 +13°C° 0 mm 1 mps 669 mmHg 43%
    08:00 +14°C° 0 mm 1 mps 670 mmHg 40%
    09:00 +18°C° 0 mm 1 mps 670 mmHg 34%
    10:00 +20°C° 0 mm 2 mps 671 mmHg 28%
    11:00 +24°C° 0 mm 2 mps 672 mmHg 22%
    12:00 +25°C° 0 mm 2 mps 671 mmHg 20%
    13:00 +26°C° 0 mm 2 mps 671 mmHg 18%
    14:00 +27°C° 0 mm 2 mps 670 mmHg 15%
    15:00 +26°C° 0 mm 2 mps 670 mmHg 16%
    16:00 +25°C° 0 mm 2 mps 669 mmHg 17%
    17:00 +24°C° 0 mm 2 mps 669 mmHg 18%
    18:00 +21°C° 0 mm 2 mps 669 mmHg 21%
    19:00 +19°C° 0 mm 2 mps 669 mmHg 25%
    20:00 +17°C° 0 mm 2 mps 668 mmHg 28%
    21:00 +16°C° 0 mm 1 mps 668 mmHg 31%
    22:00 +15°C° 0 mm 1 mps 668 mmHg 33%
    23:00 +15°C° 0 mm 1 mps 668 mmHg 36%

    2 June, Tuesday

    Time Temperature Precipitation Wind Pressure Humidity
    00:00 +14°C° 0 mm 1 mps 668 mmHg 38%
    01:00 +13°C° 0 mm 1 mps 668 mmHg 39%
    02:00 +13°C° 0 mm 1 mps 668 mmHg 41%
    03:00 +12°C° 0 mm 1 mps 667 mmHg 41%
    04:00 +12°C° 0 mm 1 mps 667 mmHg 41%
    05:00 +12°C° 0 mm 1 mps 667 mmHg 41%
    06:00 +12°C° 0 mm 1 mps 668 mmHg 39%
    07:00 +13°C° 0 mm 1 mps 668 mmHg 37%
    08:00 +14°C° 0 mm 1 mps 669 mmHg 36%
    09:00 +17°C° 0 mm 2 mps 670 mmHg 31%
    10:00 +19°C° 0 mm 2 mps 670 mmHg 26%
    11:00 +23°C° 0 mm 2 mps 671 mmHg 21%
    12:00 +24°C° 0 mm 2 mps 670 mmHg 19%
    13:00 +25°C° 0 mm 2 mps 670 mmHg 17%
    14:00 +27°C° 0 mm 2 mps 669 mmHg 15%
    15:00 +26°C° 0 mm 2 mps 669 mmHg 17%
    16:00 +25°C° 0 mm 2 mps 668 mmHg 18%
    17:00 +24°C° 0 mm 2 mps 668 mmHg 20%
    18:00 +21°C° 0 mm 2 mps 668 mmHg 24%
    19:00 +19°C° 0 mm 2 mps 668 mmHg 29%
    20:00 +17°C° 0 mm 2 mps 668 mmHg 33%
    21:00 +16°C° 0 mm 2 mps 668 mmHg 36%
    22:00 +16°C° 0 mm 1 mps 668 mmHg 40%
    23:00 +15°C° 0 mm 1 mps 668 mmHg 43%

    3 June, Wednesday

    Time Temperature Precipitation Wind Pressure Humidity
    00:00 +14°C° 0 mm 1 mps 667 mmHg 45%
    01:00 +14°C° 0 mm 1 mps 667 mmHg 47%
    02:00 +13°C° 0 mm 1 mps 667 mmHg 50%
    03:00 +13°C° 0 mm 1 mps 666 mmHg 53%
    04:00 +12°C° 0 mm 1 mps 666 mmHg 57%
    05:00 +12°C° 0 mm 1 mps 666 mmHg 60%
    06:00 +12°C° 0 mm 1 mps 667 mmHg 58%
    07:00 +13°C° 0 mm 1 mps 667 mmHg 55%
    08:00 +14°C° 0 mm 1 mps 668 mmHg 53%
    09:00 +16°C° 0 mm 1 mps 668 mmHg 46%
    10:00 +20°C° 0 mm 1 mps 669 mmHg 40%
    11:00 +22°C° 0 mm 1 mps 669 mmHg 34%
    12:00 +24°C° 0 mm 2 mps 669 mmHg 30%
    13:00 +25°C° 0 mm 2 mps 668 mmHg 26%
    14:00 +26°C° 0 mm 2 mps 668 mmHg 23%
    15:00 +25°C° 0 mm 2 mps 667 mmHg 23%
    16:00 +25°C° 0 mm 2 mps 667 mmHg 24%
    17:00 +24°C° 0 mm 2 mps 667 mmHg 24%
    18:00 +21°C° 0 mm 2 mps 667 mmHg 28%
    19:00 +19°C° 0 mm 2 mps 666 mmHg 32%
    20:00 +17°C° 0 mm 2 mps 666 mmHg 35%
    21:00 +16°C° 0 mm 2 mps 666 mmHg 37%
    22:00 +16°C° 0 mm 2 mps 666 mmHg 39%
    23:00 +15°C° 0 mm 1 mps 666 mmHg 40%

    4 June, Thursday

    Time Temperature Precipitation Wind Pressure Humidity
    00:00 +14°C° 0 mm 1 mps 666 mmHg 43%
    01:00 +14°C° 0 mm 1 mps 666 mmHg 46%
    02:00 +13°C° 0 mm 1 mps 665 mmHg 49%
    03:00 +12°C° 0 mm 1 mps 665 mmHg 51%
    04:00 +12°C° 0 mm 1 mps 665 mmHg 52%
    05:00 +12°C° 0 mm 1 mps 665 mmHg 53%
    06:00 +12°C° 0 mm 1 mps 666 mmHg 51%
    07:00 +13°C° 0 mm 1 mps 667 mmHg 48%
    08:00 +14°C° 0 mm 1 mps 668 mmHg 46%
    09:00 +17°C° 0 mm 2 mps 668 mmHg 40%
    10:00 +19°C° 0 mm 3 mps 669 mmHg 34%
    11:00 +22°C° 0 mm 4 mps 670 mmHg 29%
    12:00 +23°C° 0 mm 4 mps 669 mmHg 26%
    13:00 +25°C° 0 mm 4 mps 669 mmHg 23%
    14:00 +26°C° 0 mm 4 mps 669 mmHg 21%
    15:00 +25°C° 0 mm 4 mps 668 mmHg 22%
    16:00 +24°C° 0 mm 3 mps 668 mmHg 23%
    17:00 +24°C° 0 mm 3 mps 668 mmHg 24%
    18:00 +21°C° 0 mm 3 mps 668 mmHg 28%
    19:00 +19°C° 0 mm 3 mps 668 mmHg 32%
    20:00 +17°C° 0 mm 3 mps 668 mmHg 37%
    21:00 +16°C° 0 mm 2 mps 668 mmHg 39%
    22:00 +15°C° 0 mm 2 mps 668 mmHg 41%
    23:00 +14°C° 0 mm 2 mps 668 mmHg 43%
    Show more